GEESAT-3 04

Last updated on Sun Oct 06 2024 00:02:04 GMT+0000 (Coordinated Universal Time)

1 61014U 24159D 24278.72561428 .00702580 00000+0 30187-1 0 9992 2 61014 49.9859 101.8277 0052098 296.5997 182.2986 15.18721275 4385

Satellite not in orbit

GEESAT-3 04